Location: Starlight Observatory
(38.4029°N, 85.8936°W)
Time: 10:08:02
(UTC-04:00)

Iridium 84 - Visible Passes

Search period start: 21 October 2017 00:00
Search period end: 31 October 2017 00:00
Orbit: 776 x 779 km, 86.4° (Epoch: 20 October)

Date Brightness Start Highest point End Pass type
(mag) Time Alt. Az. Time Alt. Az. Time Alt. Az.
21 Oct 6.6 06:47:31 10° N 06:52:34 48° E 06:57:35 10° SSE visible
21 Oct 5.7 19:42:26 10° S 19:47:38 77° W 19:52:52 10° N visible
22 Oct 7.8 06:14:32 10° NNE 06:18:52 26° E 06:23:11 10° SE visible
22 Oct 8.6 20:52:16 10° WSW 20:55:15 15° WNW 20:58:14 10° NW visible
23 Oct 8.6 05:42:22 10° NE 05:45:03 14° ENE 05:47:42 10° ESE visible
23 Oct 5.6 07:21:03 10° N 07:26:12 62° W 07:31:19 10° SSW visible
23 Oct 7.7 20:17:01 10° SW 20:21:26 28° W 20:25:54 10° NNW visible
24 Oct 5.8 06:47:29 10° N 06:52:43 71° E 06:57:54 10° S visible
24 Oct 6.5 19:42:42 10° SSW 19:47:46 52° W 19:52:52 10° N visible
25 Oct 7.0 06:14:15 10° NNE 06:19:05 37° E 06:23:54 10° SSE visible
25 Oct 5.5 19:09:00 10° S 19:14:13 83° E 19:19:27 10° N visible
26 Oct 8.0 05:41:30 10° NNE 05:45:21 20° ENE 05:49:10 10° SE visible
26 Oct 5.9 07:21:20 10° NNW 07:26:14 41° W 07:31:05 10° SSW visible
26 Oct 8.3 20:18:00 10° WSW 20:21:42 19° WNW 20:25:25 10° NNW visible
27 Oct 8.7 05:10:21 10° ENE 05:11:28 11° ENE 05:12:35 10° E visible
27 Oct 5.4 06:47:34 10° N 06:52:48 79° W 06:58:00 10° S visible
27 Oct 7.3 19:43:12 10° SSW 19:47:57 35° W 19:52:44 10° NNW visible
28 Oct 6.2 06:14:08 10° N 06:19:17 55° E 06:24:22 10° SSE visible
28 Oct 6.0 19:09:09 10° S 19:14:19 67° W 19:19:32 10° N visible
29 Oct 7.4 05:41:04 10° NNE 05:45:36 29° E 05:50:07 10° SE visible
29 Oct 6.3 07:21:47 10° NNW 07:26:13 29° W 07:30:38 10° SW visible
29 Oct 8.6 20:19:35 10° WSW 20:22:01 13° WNW 20:24:28 10° NW visible
30 Oct 8.3 05:08:39 10° NE 05:11:49 16° ENE 05:14:58 10° ESE visible
30 Oct 5.6 06:47:47 10° NNW 06:52:52 54° W 06:57:55 10° SSW visible
30 Oct 8.0 19:43:58 10° SW 19:48:10 25° W 19:52:25 10° NNW visible
